sat.trackr.live / text

‹ back to catalog

LEMUR-2-KADI

NORAD 43184 · 2018-014E

PAYLOAD ACTIVE UNKNOWN

§ Identity

Operator
Country
US
Launch date
2018-02-01
Launch site
VOSTO
Launch vehicle
Mass (kg)
RCS (m²)

Purposes: earth_obs

External: N2YO · Heavens-Above · Gunter

§ Orbital elements

Epoch: 2026-05-24T18:38:23.907840Z

Period
90.35 min
Inclination
97.4405°
Eccentricity
0.0005368
Mean motion
15.93716667 rev/d
Perigee alt
288.3 km
Apogee alt
295.5 km
Semi-major
6,670.0 km
B*
1.5437e-3
RAAN
75.0904°
Arg perigee
141.0353°
Mean anomaly
219.1310°
Rev number
45,736

§ Raw data

LEMUR-2-KADI1 43184U 18014E   26144.77666560  .00554807  12608-3  15437-2 0  99952 43184  97.4405  75.0904 0005368 141.0353 219.1310 15.93716667457368

JSON: /api/v1/satellites/43184 · /tle

For live sub-satellite position, see the globe view (requires WebGL).

§ Visibility from observer

Set your observer location to see the next 7 days of passes ≥ 10°. The values pass through the URL so the page stays shareable.

No JS? Fill the form by hand. The geolocation button needs JavaScript.

§ Radio — SatNOGS DB

ModeDescriptionDownlinkUplink
BPSK Mode U 400.551 MHz

1 transmitter · refreshed weekly from db.satnogs.org